Portada
METAR-TAF:

METAR-TAF

Aeropuertos :

Aeropuerto Internacional Roman Tmetuchl

Koror, Babeldaob, Palaos

latitud: 07-22N, longitud: 134-32E, altitud: 54 m

Observación

El informe se hizo hace 1 hora y 17 minutos, a las 08:50 UTC
Viento 5 kt del este-sureste
Temperatura 28°C
Humedad 79%
Presión 1007 hPa
Visibilidad: 22.5 km
Nubes dispersas a una altura de 1600 ft
Cielo nuboso a una altura de 11000 ft
Cielo cubierto a una altura de 29000 ft

METAR: PTRO 080850Z 11005KT 14SM SCT016 BKN110 OVC290 28/24 A2975

Hora: 19:07 (10:07 UTC)

Pronóstico

El informe se hizo hace 4 horas y 12 minutos, a las 05:55 UTC
Pronóstico válido del 08 a las 06 UTC al 09 a las 06 UTC
Viento 11 kt del este
Visibilidad: 10 km
Nubes dispersas a una altura de 1600 ft
Cielo nuboso a una altura de 12000 ft
chaparrones en las proximidades

TAF: PTRO 080555Z 0806/0906 09011KT P6SM VCSH SCT016 BKN120

Observaciones y pronósticos meteorológicos de más de 4000 aeropuertos (mensajes METAR y TAF).

Los puntos amarillos y rojos representan las estaciones disponibles.

Ponga el ratón en el punto deseado para ver el nombre de la estación.

Haga clic para ver las observaciones y los pronósticos meteorológicos.

Para cambiar el mapa : haga clic en los botones verdes con una cruz de color negro para hacer un zoom, en el botón verde con un guión para alejar o en las flechas verdes para mapas adyacentes.


METAR-TAF: